[[{"header":{"parameterUnit":"m.s-1","parameterCategory":1,"la1":30.2991,"la2":30.254,"lo1":-89.0895,"lo2":-89.0444,"dy":0.0017,"dx":0.0017,"nx":28,"ny":28,"refTime":"2023-08-28T21:00:00:Z","depth":0,"parameterNumber":2,"parameterNumberName":"U-component_of_WINDS"},"data":[0,0,0,0,0,0,0,0,0,0,0,0,0,0,0,0,0,0,0,0,0,0,0,0,0,0,0,0,0,0,0,0,0,0,0,0,0,0,0,0,0,0,0,0,0,0,0,0,0,0,0,0,0,0,0,0,0,0,-2.6003,-2.6004,0,-2.6033,-2.6033,-2.6033,-2.5926,-2.5922,-2.5919,-2.5916,-2.5948,-2.5952,-2.5956,0,0,0,0,0,0,0,0,0,0,0,0,0,-2.5855,-2.5858,-2.6003,-2.6004,-2.6004,-2.6033,-2.6033,-2.6034,-2.5926,-2.5922,-2.5918,-2.5915,-2.5947,-2.5952,-2.5956,0,0,0,0,0,0,0,0,0,0,0,0,0,-2.5906,-2.586,-2.6003,-2.5954,-2.595,-2.6033,-2.6033,-2.6034,-2.5927,-2.5922,-2.5917,-2.5913,-2.5946,-2.5951,-2.5957,-2.6089,0,0,-2.5975,-2.5977,0,0,0,0,0,0,0,0,-2.5903,-2.5911,-2.5961,-2.5957,-2.5953,-2.597,-2.5993,-2.6052,-2.5928,-2.5936,-2.5916,-2.591,-2.596,-2.5964,-2.598,-2.6091,-2.6092,-2.5975,-2.5979,-2.5981,-2.5983,0,0,0,0,0,0,0,-2.59,-2.5909,-2.6015,-2.5962,-2.5957,-2.5931,-2.5932,-2.6003,-2.5975,-2.5935,-2.5927,-2.5932,-2.5957,-2.5975,-2.598,-2.6093,-2.5975,-2.598,-2.5984,-2.5986,-2.6314,-2.6319,0,0,0,0,0,0,-2.5902,-2.5907,-2.6014,-2.6016,-2.5915,-2.5937,-2.5939,-2.597,-2.5973,-2.5969,-2.5936,-2.5927,-2.5967,-2.5974,-2.5981,-2.6137,-2.5981,-2.5986,-2.599,-2.6309,-2.6315,-2.6321,0,0,0,0,0,0,-2.59,-2.5913,-2.6013,-2.5959,-2.597,-2.5945,-2.598,-2.5973,-2.5991,-2.5974,-2.5969,-2.596,-2.5964,-2.5973,-2.6063,-2.6136,-2.5989,-2.5994,-2.6302,-2.6311,-2.6318,-2.645,0,0,0,0,0,0,-2.5896,-2.5913,-2.5962,-2.5961,-2.5973,-2.6095,-2.5985,-2.5977,-2.6001,-2.5989,-2.5995,-2.5992,-2.5961,-2.6055,-2.6069,-2.6142,-2.5999,-2.6296,-2.6306,-2.6315,-2.6439,-2.6461,-2.648,0,0,0,0,0,-2.5891,-2.5999,-2.5966,-2.5979,-2.6035,-2.6099,-2.6106,-2.6068,-2.6007,-2.6058,-2.6047,-2.5991,-2.6126,-2.6065,-2.608,-2.6156,-2.6291,-2.6303,-2.6315,-2.6429,-2.6457,-2.648,0,0,0,0,0,0,-2.601,-2.5998,-2.5961,-2.6071,-2.6087,-2.6081,-2.6143,-2.6098,-2.6131,-2.6119,-2.607,-2.6073,-2.6172,-2.6172,-2.6105,-2.6284,-2.6198,-2.6213,-2.628,-2.6306,-2.6326,-2.6325,-2.6004,0,0,0,0,0,-2.6049,-2.6101,-2.6088,-2.6187,-2.6196,-2.6169,-2.6195,-2.6164,-2.6178,-2.6185,-2.618,-2.6197,-2.6243,-2.6274,-2.6315,-2.6438,-2.6438,-2.6497,-2.6518,-2.6535,-2.6549,-2.6614,-2.664,-2.6359,-2.6359,-2.6359,0,0,-2.613,-2.613,-2.6166,-2.6211,-2.6219,-2.6275,-2.6175,-2.6238,-2.6279,-2.6194,-2.6279,-2.6277,-2.6292,-2.64,-2.6446,-2.6403,-2.6626,-2.655,-2.6563,-2.6568,-2.6629,-2.6656,-2.6679,-2.6367,-2.6366,-2.6365,0,0,-2.6307,-2.6312,-2.6395,-2.6405,-2.6419,-2.64,-2.642,-2.642,-2.6415,-2.65,-2.6437,-2.6486,-2.6565,-2.6579,-2.6597,-2.6778,-2.6729,-2.6793,-2.6902,-2.6966,-2.6989,-2.7008,-2.7074,-2.7098,-2.6807,-2.6807,-2.6808,0,-2.6407,-2.6488,-2.6444,-2.6511,-2.6533,-2.6458,-2.6542,-2.6554,-2.6581,-2.6598,-2.6549,-2.6647,-2.6652,-2.6762,-2.6806,-2.6823,-2.6845,-2.6793,-2.6989,-2.7008,-2.7025,-2.7088,-2.7112,-2.6815,-2.6814,-2.6814,-2.6813,0,-2.661,-2.6668,-2.6733,-2.6761,-2.6789,-2.6865,-2.6833,-2.6867,-2.6834,-2.682,-2.6907,-2.691,-2.6951,-2.6974,-2.6942,-2.7079,-2.7052,-2.6997,-2.691,-2.7061,-2.7118,-2.7142,-2.6826,-2.6824,-2.6821,-2.6819,0,0,-2.6864,-2.6866,-2.6891,-2.6902,-2.6912,-2.6955,-2.7028,-2.7067,-2.7098,-2.7119,-2.7179,-2.7248,-2.7196,-2.7216,-2.7185,-2.7241,-2.7386,-2.7179,-2.7178,-2.7218,-2.7539,-2.7581,-2.761,-2.7353,-2.7357,-2.7361,-2.7538,0,-2.7039,-2.7162,-2.7124,-2.7249,-2.7301,-2.723,-2.7293,-2.7306,-2.7295,-2.7338,-2.7326,-2.7376,-2.7304,-2.7316,-2.7368,-2.7358,-2.745,-2.7344,-2.7409,-2.7412,-2.7409,-2.764,-2.7685,-2.7852,-2.756,-2.7564,-2.7566,0,-2.7259,-2.7289,-2.7419,-2.7419,-2.744,-2.7497,-2.753,-2.7572,-2.7585,-2.7573,-2.7596,-2.7552,-2.7624,-2.7536,-2.7634,-2.7563,-2.7587,-2.7586,-2.7591,-2.7597,-2.75,-2.7653,-2.7904,-2.793,-2.7601,-2.7598,-2.7596,0,-2.7433,-2.7505,-2.7592,-2.7604,-2.7606,-2.7648,-2.7651,-2.766,-2.7686,-2.7714,-2.7731,-2.7768,-2.7789,-2.7819,-2.7787,-2.7726,-2.7891,-2.78,-2.7884,-2.7885,-2.7923,-2.7921,-2.8183,-2.7937,-2.7936,-2.7936,-2.7935,0,-2.7633,-2.7716,-2.767,-2.7724,-2.7814,-2.7769,-2.786,-2.7855,-2.7863,-2.7915,-2.7855,-2.7906,-2.786,-2.7906,-2.7882,-2.7968,-2.7977,-2.797,-2.7963,-2.7976,-2.7978,-2.7993,-2.7981,-2.7943,-2.7941,-2.794,-2.7939,0,-2.7843,-2.7815,-2.7906,-2.79,-2.7901,-2.7968,-2.7963,-2.8013,-2.7997,-2.8064,-2.8077,-2.8052,-2.8104,-2.8074,-2.8127,-2.8111,-2.8223,-2.8199,-2.8218,-2.8212,-2.8299,-2.8292,-2.858,-2.8616,-2.8346,-2.8349,-2.8351,0,-2.7973,-2.8035,-2.8036,-2.8066,-2.8073,-2.8122,-2.8148,-2.8106,-2.8136,-2.8156,-2.8204,-2.8249,-2.8284,-2.8369,-2.8357,-2.8397,-2.8375,-2.8473,-2.838,-2.8392,-2.8378,-2.8375,-2.8381,-2.8492,-2.8496,-2.8498,-2.85,0,-2.8207,-2.819,-2.823,-2.8265,-2.8298,-2.8323,-2.8344,-2.8373,-2.8331,-2.8367,-2.8419,-2.8446,-2.8499,-2.8546,-2.858,-2.8583,-2.8536,-2.8529,-2.8551,-2.8566,-2.8575,-2.8573,-2.8271,-2.8523,-2.8521,-2.8519,-2.8518,-2.8517,-2.8382,-2.8433,-2.8442,-2.8488,-2.8499,-2.852,-2.8567,-2.8556,-2.8598,-2.8638,-2.8611,-2.8672,-2.8683,-2.8724,-2.8734,-2.8781,-2.8742,-2.8773,-2.8782,-2.879,-2.8803,-2.8566,-2.8787,-2.8787,-2.8786,-2.8785,-2.8785,0,-2.8614,-2.8616,-2.8658,-2.8689,-2.8726,-2.8676,-2.8696,-2.8731,-2.8785,-2.8799,-2.8834,-2.8894,-2.8939,-2.8929,-2.897,-2.901,-2.8989,-2.9022,-2.902,-2.9021,-2.8835,-2.8813,-2.9038,-2.9038,-2.9038,-2.9038,-2.9038,-2.9038,-2.8739,-2.8824,-2.8808,-2.8898,-2.8899,-2.8958,-2.8974,-2.8994,-2.9005,-2.9074,-2.911,-2.9103,-2.9108,-2.9149,-2.9188,-2.9184,-2.9203,-2.9244,-2.9233,-2.9059,-2.9034,-2.9011,-2.8989,-2.9248,-2.9249,-2.9415,-2.9417,-2.9418]},{"header":{"parameterUnit":"m.s-1","parameterCategory":1,"la1":30.2991,"la2":30.254,"lo1":-89.0895,"lo2":-89.0444,"dy":0.0017,"dx":0.0017,"nx":28,"ny":28,"refTime":"2023-08-28T21:00:00:Z","depth":0,"parameterNumber":3,"parameterNumberName":"V-component_of_WINDS"},"data":[0,0,0,0,0,0,0,0,0,0,0,0,0,0,0,0,0,0,0,0,0,0,0,0,0,0,0,0,0,0,0,0,0,0,0,0,0,0,0,0,0,0,0,0,0,0,0,0,0,0,0,0,0,0,0,0,0,0,-2.2821,-2.2821,0,-2.2832,-2.2832,-2.2832,-2.2823,-2.2823,-2.2823,-2.2822,-2.2833,-2.2833,-2.2834,0,0,0,0,0,0,0,0,0,0,0,0,0,-2.279,-2.279,-2.2821,-2.2821,-2.2821,-2.2832,-2.2832,-2.2832,-2.2823,-2.2823,-2.2822,-2.2822,-2.2833,-2.2833,-2.2834,0,0,0,0,0,0,0,0,0,0,0,0,0,-2.2802,-2.279,-2.2821,-2.2818,-2.2818,-2.2832,-2.2832,-2.2832,-2.2824,-2.2823,-2.2822,-2.2822,-2.2832,-2.2833,-2.2834,-2.2851,0,0,-2.2837,-2.2837,0,0,0,0,0,0,0,0,-2.2802,-2.2803,-2.2818,-2.2818,-2.2818,-2.2826,-2.2825,-2.2839,-2.2824,-2.2821,-2.2822,-2.2822,-2.2831,-2.2832,-2.2835,-2.2852,-2.2852,-2.2837,-2.2838,-2.2838,-2.2838,0,0,0,0,0,0,0,-2.2801,-2.2803,-2.2825,-2.2819,-2.2818,-2.2815,-2.2817,-2.2828,-2.2829,-2.2822,-2.2821,-2.2822,-2.2831,-2.2834,-2.2835,-2.2853,-2.2837,-2.2838,-2.2839,-2.2839,-2.2882,-2.2882,0,0,0,0,0,0,-2.28,-2.2802,-2.2825,-2.2826,-2.2808,-2.2817,-2.2818,-2.2824,-2.2829,-2.2829,-2.2823,-2.2822,-2.2833,-2.2834,-2.2836,-2.2855,-2.2838,-2.2839,-2.284,-2.2881,-2.2882,-2.2882,0,0,0,0,0,0,-2.28,-2.2802,-2.2824,-2.2814,-2.2816,-2.2818,-2.2824,-2.2824,-2.2828,-2.283,-2.283,-2.2826,-2.2833,-2.2834,-2.2847,-2.2855,-2.2839,-2.284,-2.288,-2.2881,-2.2882,-2.2894,0,0,0,0,0,0,-2.2799,-2.2802,-2.2809,-2.2814,-2.2817,-2.2836,-2.2825,-2.2825,-2.283,-2.2829,-2.2833,-2.2834,-2.2832,-2.2846,-2.2848,-2.2856,-2.2841,-2.288,-2.2881,-2.2882,-2.2893,-2.2895,-2.2897,0,0,0,0,0,-2.2798,-2.2813,-2.281,-2.2813,-2.2826,-2.2837,-2.2839,-2.2837,-2.2831,-2.2837,-2.2838,-2.2833,-2.2854,-2.2847,-2.285,-2.2858,-2.2879,-2.2881,-2.2882,-2.2892,-2.2895,-2.2897,0,0,0,0,0,0,-2.2809,-2.2813,-2.281,-2.2827,-2.2832,-2.2835,-2.2844,-2.284,-2.2847,-2.2845,-2.2843,-2.2844,-2.2857,-2.2859,-2.2851,-2.2874,-2.2865,-2.2867,-2.2872,-2.2875,-2.2877,-2.2876,-2.2842,0,0,0,0,0,-2.2814,-2.2823,-2.2826,-2.284,-2.2843,-2.2843,-2.2848,-2.2846,-2.285,-2.2852,-2.2854,-2.2858,-2.2865,-2.287,-2.2877,-2.2893,-2.2893,-2.29,-2.2902,-2.2904,-2.2905,-2.2912,-2.2914,-2.2887,-2.2887,-2.2887,0,0,-2.2823,-2.2826,-2.2832,-2.2842,-2.2846,-2.2854,-2.2845,-2.2854,-2.286,-2.2854,-2.2865,-2.2867,-2.2871,-2.2885,-2.2891,-2.2887,-2.2913,-2.2905,-2.2907,-2.2907,-2.2913,-2.2916,-2.2918,-2.2887,-2.2887,-2.2887,0,0,-2.2844,-2.2848,-2.286,-2.2863,-2.2868,-2.2868,-2.2871,-2.2875,-2.2875,-2.2887,-2.2882,-2.2888,-2.2902,-2.2904,-2.2907,-2.2928,-2.2923,-2.293,-2.2941,-2.2947,-2.2949,-2.2951,-2.2957,-2.2959,-2.2932,-2.2932,-2.2932,0,-2.2855,-2.2868,-2.2866,-2.2876,-2.288,-2.2874,-2.2885,-2.2888,-2.2895,-2.2898,-2.2893,-2.2908,-2.291,-2.2924,-2.2929,-2.2932,-2.2934,-2.2929,-2.2949,-2.2951,-2.2953,-2.2958,-2.2961,-2.2932,-2.2932,-2.2932,-2.2932,0,-2.288,-2.2889,-2.2898,-2.2904,-2.2909,-2.292,-2.2919,-2.2924,-2.2921,-2.2921,-2.2932,-2.2935,-2.2942,-2.2945,-2.2943,-2.2958,-2.2955,-2.295,-2.2941,-2.2956,-2.2961,-2.2964,-2.2933,-2.2933,-2.2933,-2.2933,0,0,-2.291,-2.2914,-2.2917,-2.2919,-2.2923,-2.293,-2.2939,-2.2945,-2.2949,-2.2954,-2.2961,-2.2971,-2.2966,-2.2969,-2.2968,-2.2973,-2.2987,-2.2967,-2.2967,-2.297,-2.3002,-2.3005,-2.3008,-2.2984,-2.2985,-2.2985,-2.3001,0,-2.293,-2.2946,-2.2944,-2.296,-2.2967,-2.2961,-2.2969,-2.2972,-2.2972,-2.2977,-2.2977,-2.2984,-2.2977,-2.2979,-2.2985,-2.2984,-2.2994,-2.2983,-2.299,-2.299,-2.2988,-2.3011,-2.3014,-2.3029,-2.3003,-2.3004,-2.3004,0,-2.2956,-2.2961,-2.2977,-2.2978,-2.2981,-2.2989,-2.2993,-2.2999,-2.3002,-2.3001,-2.3004,-2.3001,-2.3009,-2.3,-2.3011,-2.3004,-2.3006,-2.3007,-2.3007,-2.3007,-2.2997,-2.301,-2.3034,-2.3036,-2.3007,-2.3007,-2.3007,0,-2.2974,-2.2984,-2.2995,-2.2997,-2.2999,-2.3004,-2.3005,-2.3008,-2.3011,-2.3015,-2.3017,-2.3022,-2.3024,-2.3028,-2.3025,-2.3019,-2.3036,-2.3027,-2.3034,-2.3034,-2.3038,-2.3037,-2.3061,-2.3041,-2.3041,-2.3041,-2.3041,0,-2.2996,-2.3005,-2.3002,-2.3009,-2.3019,-2.3016,-2.3026,-2.3026,-2.3028,-2.3034,-2.3029,-2.3034,-2.3031,-2.3036,-2.3034,-2.3042,-2.3044,-2.3042,-2.3042,-2.3042,-2.3042,-2.3043,-2.3042,-2.3041,-2.3041,-2.3041,-2.3041,0,-2.3017,-2.3016,-2.3027,-2.3028,-2.3028,-2.3035,-2.3036,-2.3041,-2.304,-2.3048,-2.3049,-2.3048,-2.3053,-2.3051,-2.3057,-2.3055,-2.3065,-2.3063,-2.3064,-2.3063,-2.307,-2.3069,-2.3095,-2.3098,-2.3076,-2.3077,-2.3077,0,-2.3031,-2.3038,-2.304,-2.3043,-2.3044,-2.305,-2.3053,-2.305,-2.3053,-2.3056,-2.3061,-2.3065,-2.3069,-2.3077,-2.3076,-2.308,-2.3078,-2.3087,-2.3079,-2.3079,-2.3077,-2.3076,-2.3076,-2.3088,-2.3089,-2.3089,-2.3089,0,-2.3055,-2.3054,-2.3058,-2.3062,-2.3066,-2.3069,-2.3072,-2.3075,-2.3071,-2.3075,-2.308,-2.3083,-2.3088,-2.3092,-2.3096,-2.3096,-2.3092,-2.3092,-2.3093,-2.3094,-2.3093,-2.3092,-2.3067,-2.3091,-2.3091,-2.3091,-2.309,-2.309,-2.3072,-2.3078,-2.3079,-2.3084,-2.3085,-2.3087,-2.3092,-2.3091,-2.3096,-2.31,-2.3097,-2.3103,-2.3104,-2.3108,-2.3109,-2.3112,-2.3109,-2.3112,-2.3112,-2.3113,-2.3113,-2.3093,-2.3113,-2.3113,-2.3113,-2.3113,-2.3113,0,-2.3095,-2.3095,-2.31,-2.3103,-2.3106,-2.3102,-2.3104,-2.3107,-2.3112,-2.3114,-2.3117,-2.3122,-2.3126,-2.3125,-2.3128,-2.3131,-2.3129,-2.3132,-2.3131,-2.3131,-2.3117,-2.3114,-2.3133,-2.3133,-2.3133,-2.3133,-2.3133,-2.3133,-2.3107,-2.3115,-2.3114,-2.3122,-2.3122,-2.3128,-2.3129,-2.313,-2.3131,-2.3137,-2.314,-2.3139,-2.314,-2.3142,-2.3145,-2.3145,-2.3146,-2.3149,-2.3148,-2.3134,-2.3132,-2.313,-2.3128,-2.315,-2.315,-2.3162,-2.3162,-2.3162]}]]